[[{"header":{"parameterUnit":"m.s-1","parameterCategory":1,"la1":30.2991,"la2":30.254,"lo1":-89.0895,"lo2":-89.0444,"dy":0.0017,"dx":0.0017,"nx":28,"ny":28,"refTime":"2025-05-27T03:00:00:Z","depth":0,"parameterNumber":2,"parameterNumberName":"U-component_of_WINDS"},"data":[0,0,0,0,0,0,0,0,0,0,0,0,0,0,0,0,0,0,0,0,0,0,0,0,0,0,0,0,0,0,0,0,0,0,0,0,0,0,0,0,0,0,0,0,0,0,0,0,0,0,0,0,0,0,0,0,0,0,1.0358,1.0359,0,1.0398,1.0399,1.0399,1.0396,1.0395,1.0395,1.0394,1.0439,1.0441,1.0443,0,0,0,0,0,0,0,0,0,0,0,0,0,1.0279,1.028,1.0358,1.0359,1.0359,1.0398,1.0399,1.0399,1.0396,1.0395,1.0394,1.0394,1.0439,1.0441,1.0443,0,0,0,0,0,0,0,0,0,0,0,0,0,1.0315,1.0281,1.0358,1.0362,1.0363,1.0398,1.0399,1.04,1.0396,1.0395,1.0394,1.0393,1.0438,1.044,1.0443,1.0478,0,0,1.0451,1.0452,0,0,0,0,0,0,0,0,1.0313,1.0318,1.0361,1.0362,1.0363,1.0391,1.0387,1.0426,1.0396,1.0384,1.0394,1.0393,1.0424,1.0428,1.0438,1.0481,1.0482,1.0451,1.0453,1.0454,1.0455,0,0,0,0,0,0,0,1.0311,1.0317,1.0374,1.0362,1.0363,1.0362,1.0366,1.0395,1.0409,1.0385,1.0384,1.0389,1.0424,1.0435,1.0439,1.0483,1.0451,1.0454,1.0455,1.0457,1.0553,1.0554,0,0,0,0,0,0,1.0307,1.0315,1.0373,1.0375,1.0335,1.0364,1.0369,1.0383,1.0408,1.0411,1.039,1.0389,1.0431,1.0436,1.044,1.0481,1.0454,1.0457,1.0458,1.0552,1.0553,1.0554,0,0,0,0,0,0,1.0305,1.0312,1.0371,1.0345,1.0352,1.0366,1.0382,1.0384,1.0395,1.0412,1.0415,1.0398,1.043,1.0436,1.0468,1.0482,1.0458,1.046,1.0551,1.0552,1.0553,1.0564,0,0,0,0,0,0,1.0303,1.0312,1.0326,1.0345,1.0354,1.0398,1.0383,1.0386,1.0399,1.0398,1.0421,1.0424,1.043,1.0464,1.047,1.0486,1.0462,1.0549,1.0551,1.0553,1.0562,1.0565,1.0568,0,0,0,0,0,1.03,1.0329,1.0326,1.0333,1.0371,1.0399,1.0404,1.041,1.04,1.0414,1.0424,1.0423,1.0479,1.0467,1.0474,1.0491,1.0549,1.0551,1.0553,1.0561,1.0565,1.0568,0,0,0,0,0,0,1.0313,1.0332,1.0329,1.0365,1.038,1.0398,1.0416,1.0414,1.0434,1.0432,1.044,1.0445,1.0475,1.0486,1.0472,1.0524,1.0513,1.0516,1.0516,1.052,1.0523,1.052,1.0465,0,0,0,0,0,1.0319,1.034,1.0355,1.0385,1.0392,1.0403,1.0415,1.0418,1.0435,1.0442,1.0455,1.0472,1.0493,1.0507,1.0528,1.0563,1.0567,1.0578,1.058,1.0583,1.0586,1.0602,1.0607,1.0561,1.0561,1.0561,0,0,1.0334,1.0347,1.036,1.0388,1.04,1.042,1.0409,1.0432,1.0447,1.0446,1.0475,1.0485,1.0504,1.0536,1.0551,1.0546,1.0599,1.0585,1.0587,1.0589,1.0605,1.0609,1.0613,1.0562,1.0562,1.0562,0,0,1.0371,1.0383,1.0407,1.0419,1.0436,1.0442,1.0447,1.0465,1.0471,1.05,1.0498,1.0516,1.0553,1.0566,1.0577,1.0613,1.0612,1.062,1.0636,1.0651,1.0655,1.0658,1.0669,1.0673,1.0623,1.0623,1.0623,0,1.0387,1.0418,1.0421,1.0443,1.0454,1.0451,1.0474,1.0486,1.051,1.0518,1.0511,1.0554,1.0568,1.0601,1.0609,1.0619,1.0625,1.0618,1.0654,1.0657,1.066,1.0671,1.0675,1.0624,1.0624,1.0624,1.0624,0,1.0436,1.0456,1.0474,1.0494,1.0507,1.0531,1.0536,1.055,1.055,1.0556,1.0584,1.0598,1.062,1.0628,1.0631,1.0661,1.0657,1.0652,1.0641,1.0665,1.0675,1.0679,1.0625,1.0625,1.0624,1.0624,0,0,1.0485,1.0502,1.0509,1.0516,1.0533,1.0549,1.0571,1.059,1.06,1.0616,1.0634,1.0663,1.0656,1.0669,1.0672,1.0686,1.071,1.0679,1.0679,1.0683,1.0743,1.0746,1.0751,1.0709,1.071,1.071,1.074,0,1.0522,1.0559,1.056,1.0595,1.0612,1.0607,1.0625,1.0637,1.0643,1.0659,1.0665,1.0684,1.0676,1.0683,1.0696,1.0704,1.0722,1.0702,1.0725,1.0726,1.072,1.0756,1.0761,1.0789,1.0745,1.0745,1.0746,0,1.0572,1.0585,1.062,1.063,1.0638,1.0655,1.067,1.0686,1.0698,1.0701,1.0712,1.0712,1.0733,1.072,1.0748,1.0734,1.0743,1.0748,1.0749,1.0752,1.0737,1.0759,1.0798,1.0802,1.0752,1.0752,1.0751,0,1.0601,1.0629,1.0652,1.0659,1.0672,1.0684,1.069,1.0701,1.0711,1.0725,1.0731,1.0748,1.0757,1.077,1.0773,1.0764,1.0801,1.0789,1.0803,1.0803,1.0812,1.0811,1.0852,1.0818,1.0818,1.0818,1.0818,0,1.0643,1.0664,1.0665,1.068,1.0703,1.0703,1.0725,1.0731,1.074,1.0755,1.0752,1.0766,1.077,1.0785,1.0788,1.0809,1.0814,1.0816,1.0817,1.0816,1.0816,1.0823,1.082,1.0819,1.0819,1.0819,1.0819,0,1.0681,1.0683,1.0708,1.0716,1.0719,1.0735,1.0743,1.0756,1.0759,1.0778,1.0782,1.0788,1.0804,1.0808,1.083,1.0831,1.0856,1.0855,1.0851,1.0851,1.0865,1.0863,1.0912,1.0917,1.088,1.088,1.0881,0,1.0707,1.0723,1.0732,1.074,1.0746,1.0761,1.077,1.077,1.0779,1.0792,1.0803,1.0819,1.0832,1.0858,1.0864,1.0879,1.0878,1.0894,1.0881,1.0878,1.0877,1.0876,1.0876,1.0897,1.0897,1.0898,1.0898,0,1.0753,1.0752,1.0764,1.0776,1.0786,1.0796,1.0806,1.0813,1.0814,1.0825,1.084,1.0849,1.0868,1.0883,1.0897,1.0904,1.0901,1.0901,1.0905,1.0905,1.0902,1.0902,1.0857,1.0901,1.09,1.09,1.09,1.09,1.0785,1.0797,1.0804,1.0817,1.0823,1.0831,1.0843,1.0846,1.0858,1.0872,1.0871,1.0888,1.0896,1.0914,1.0921,1.0934,1.0929,1.0935,1.0937,1.0938,1.0938,1.0899,1.0937,1.0937,1.0936,1.0936,1.0936,0,1.0829,1.0832,1.0844,1.0855,1.0865,1.0858,1.0867,1.0876,1.089,1.0898,1.0908,1.0925,1.0938,1.0944,1.0957,1.0965,1.0964,1.0969,1.0968,1.0969,1.0943,1.0937,1.0969,1.0969,1.0969,1.0969,1.0969,1.0969,1.0853,1.0872,1.0871,1.0893,1.0896,1.091,1.0916,1.0922,1.0928,1.0945,1.0955,1.0958,1.0964,1.0976,1.0988,1.0989,1.0994,1.0999,1.0999,1.0975,1.0971,1.0968,1.0963,1.1,1.1,1.1025,1.1025,1.1025]},{"header":{"parameterUnit":"m.s-1","parameterCategory":1,"la1":30.2991,"la2":30.254,"lo1":-89.0895,"lo2":-89.0444,"dy":0.0017,"dx":0.0017,"nx":28,"ny":28,"refTime":"2025-05-27T03:00:00:Z","depth":0,"parameterNumber":3,"parameterNumberName":"V-component_of_WINDS"},"data":[0,0,0,0,0,0,0,0,0,0,0,0,0,0,0,0,0,0,0,0,0,0,0,0,0,0,0,0,0,0,0,0,0,0,0,0,0,0,0,0,0,0,0,0,0,0,0,0,0,0,0,0,0,0,0,0,0,0,4.0275,4.0274,0,4.0179,4.0178,4.0177,4.0169,4.017,4.0171,4.0172,4.0065,4.0061,4.0057,0,0,0,0,0,0,0,0,0,0,0,0,0,4.0447,4.0444,4.0275,4.0274,4.0273,4.0179,4.0178,4.0177,4.0169,4.017,4.0172,4.0173,4.0066,4.0061,4.0057,0,0,0,0,0,0,0,0,0,0,0,0,0,4.0363,4.0443,4.0276,4.0258,4.0256,4.0179,4.0178,4.0176,4.0169,4.017,4.0172,4.0173,4.0067,4.0062,4.0056,3.9988,0,0,4.0038,4.0036,0,0,0,0,0,0,0,0,4.0368,4.0357,4.0262,4.0259,4.0256,4.0188,4.0199,4.0113,4.0168,4.0201,4.0172,4.0174,4.0104,4.0095,4.0073,3.9983,3.9978,4.0038,4.0034,4.0032,4.003,0,0,0,0,0,0,0,4.0374,4.0361,4.0237,4.026,4.0257,4.0253,4.0243,4.0182,4.0144,4.0199,4.0198,4.0187,4.0102,4.0079,4.0071,3.9977,4.0038,4.0033,4.0029,4.0027,3.9827,3.9825,0,0,0,0,0,0,4.0384,4.0366,4.024,4.0234,4.0318,4.0249,4.0238,4.0208,4.0145,4.0137,4.0186,4.0187,4.0088,4.0077,4.0067,3.9983,4.0032,4.0026,4.0023,3.9829,3.9827,3.9825,0,0,0,0,0,0,4.0388,4.0373,4.0244,4.03,4.0283,4.0244,4.0211,4.0205,4.0182,4.0136,4.0128,4.0169,4.0089,4.0075,4.0009,3.9979,4.0024,4.0018,3.9831,3.9828,3.9826,3.9815,0,0,0,0,0,0,4.0393,4.0374,4.0349,4.0299,4.028,4.0189,4.0209,4.0202,4.0173,4.0173,4.0118,4.011,4.0089,4.0017,4.0003,3.9972,4.0014,3.9833,3.983,3.9827,3.9817,3.9812,3.9807,0,0,0,0,0,4.0399,4.0347,4.0348,4.0332,4.0248,4.0187,4.0176,4.0155,4.017,4.0144,4.0115,4.0112,3.9986,4.0011,3.9994,3.9961,3.9835,3.9831,3.9827,3.982,3.9813,3.9808,0,0,0,0,0,0,4.039,4.034,4.034,4.0272,4.0234,4.0186,4.0152,4.0149,4.0104,4.0106,4.008,4.0067,4.0002,3.9975,4.0004,3.9893,3.9912,3.9904,3.9912,3.9905,3.99,3.9906,4.0009,0,0,0,0,0,4.0381,4.0338,4.0296,4.0239,4.0221,4.019,4.0163,4.0151,4.011,4.0093,4.0058,4.0016,3.9968,3.9935,3.9888,3.9815,3.9802,3.9785,3.978,3.9776,3.9768,3.9728,3.972,3.9811,3.9811,3.9811,0,0,4.036,4.0328,4.0301,4.0237,4.0207,4.0161,4.0176,4.0126,4.0092,4.0084,4.002,3.9994,3.9945,3.9876,3.9844,3.9852,3.9741,3.977,3.9768,3.9762,3.9723,3.9714,3.9707,3.9809,3.9809,3.9809,0,0,4.0297,4.027,4.022,4.0191,4.0147,4.0127,4.0115,4.0069,4.0052,3.9989,3.9983,3.994,3.9856,3.9822,3.9794,3.9725,3.972,3.971,3.9682,3.9643,3.9636,3.9629,3.9603,3.9595,3.9704,3.9704,3.9704,0,4.0275,4.0209,4.0194,4.0146,4.0117,4.0114,4.0062,4.0034,3.9974,3.9954,3.9966,3.9863,3.9829,3.9752,3.9736,3.9714,3.9698,3.9714,3.9639,3.9632,3.9626,3.96,3.9591,3.9703,3.9703,3.9703,3.9703,0,4.0184,4.0138,4.0103,4.005,4.0019,3.9969,3.9945,3.9914,3.9907,3.9886,3.9822,3.9783,3.9728,3.971,3.97,3.9632,3.9638,3.9645,3.9662,3.9616,3.9592,3.9582,3.9701,3.9702,3.9702,3.9702,0,0,4.0107,4.0052,4.0039,4.0016,3.9969,3.9932,3.9883,3.9833,3.9807,3.9768,3.9724,3.9656,3.9663,3.9631,3.9618,3.9585,3.9532,3.9595,3.9594,3.9583,3.9454,3.9447,3.9436,3.9531,3.9529,3.9527,3.9457,0,4.0038,3.9953,3.9941,3.9864,3.9821,3.982,3.9777,3.9743,3.9723,3.9682,3.9659,3.9611,3.9625,3.9606,3.9573,3.9546,3.9505,3.9551,3.9487,3.9485,3.9497,3.9424,3.9416,3.9352,3.9448,3.9446,3.9445,0,3.9945,3.9908,3.9828,3.979,3.9772,3.9733,3.9688,3.965,3.9612,3.96,3.9567,3.9559,3.9507,3.9531,3.9457,3.9489,3.9463,3.9446,3.9443,3.9433,3.946,3.941,3.933,3.932,3.943,3.9432,3.9433,0,3.9895,3.9826,3.9769,3.975,3.9704,3.9677,3.9657,3.9621,3.9592,3.9552,3.9534,3.9487,3.9461,3.9424,3.9404,3.9424,3.9332,3.9354,3.9318,3.9319,3.9295,3.9296,3.9208,3.9284,3.9284,3.9284,3.9284,0,3.9817,3.9768,3.9747,3.9712,3.9657,3.9644,3.9589,3.9569,3.9538,3.9497,3.9494,3.9455,3.9433,3.9391,3.9375,3.9316,3.9305,3.9292,3.9288,3.9291,3.9292,3.927,3.9273,3.9281,3.9282,3.9283,3.9283,0,3.975,3.9735,3.9673,3.9637,3.9627,3.9588,3.9556,3.9522,3.9505,3.9455,3.9442,3.9414,3.9365,3.9343,3.9281,3.9271,3.9204,3.9204,3.9217,3.9215,3.918,3.9182,3.9071,3.9056,3.9145,3.9144,3.9143,0,3.97,3.9663,3.9625,3.96,3.958,3.9538,3.9511,3.9498,3.9469,3.9426,3.9396,3.9348,3.9309,3.9231,3.9203,3.9157,3.9154,3.9119,3.9147,3.9152,3.9151,3.9153,3.9148,3.9112,3.9111,3.9111,3.911,0,3.9611,3.9607,3.9569,3.953,3.9499,3.9466,3.9434,3.9413,3.9394,3.9362,3.9315,3.9285,3.9226,3.9177,3.913,3.9107,3.9104,3.9103,3.9092,3.9092,3.9101,3.9094,3.92,3.9104,3.9105,3.9105,3.9105,3.9106,3.9549,3.9517,3.9486,3.9445,3.9421,3.9393,3.9359,3.9341,3.9302,3.9254,3.9249,3.9198,3.9162,3.91,3.9075,3.9034,3.9042,3.9026,3.9021,3.9017,3.9014,3.9112,3.9025,3.9025,3.9026,3.9026,3.9026,0,3.9459,3.9441,3.9404,3.9362,3.9329,3.9337,3.9302,3.9274,3.923,3.9199,3.9163,3.9109,3.9064,3.9035,3.899,3.8962,3.896,3.895,3.895,3.8944,3.901,3.9024,3.8953,3.8953,3.8953,3.8953,3.8953,3.8953,3.9408,3.9354,3.9346,3.9281,3.9262,3.9215,3.9195,3.9168,3.9144,3.9085,3.9049,3.9033,3.9003,3.8956,3.8914,3.8907,3.8889,3.8879,3.8871,3.8932,3.894,3.8947,3.8959,3.8876,3.8876,3.8809,3.8808,3.8808]}]]